[[{"header":{"parameterUnit":"m.s-1","parameterCategory":2,"la1":30.2991,"la2":30.254,"lo1":-89.0895,"lo2":-89.0444,"dy":0.0017,"dx":0.0017,"nx":28,"ny":28,"refTime":"2024-04-11T21:00:00:Z","depth":"0","parameterNumber":2,"parameterNumberName":"U-component_of_CURRENTS"},"data":[0,0,0,0,0,0,0,0,0,0,0,0,0,0,0,0,0,0,0,0,0,0,0,0,0,0,0,0,0,0,0,0,0,0,0,0,0,0,0,0,0,0,0,0,0,0,0,0,0,0,0,0,0,0,0,0,0,0,0.2619,0.262,0,0.2706,0.2707,0.2707,0.273,0.273,0.273,0.2729,0.2788,0.279,0.2792,0,0,0,0,0,0,0,0,0,0,0,0,0,0.2482,0.2484,0.2619,0.262,0.2622,0.2706,0.2707,0.2708,0.273,0.273,0.2729,0.2729,0.2788,0.279,0.2792,0,0,0,0,0,0,0,0,0,0,0,0,0,0.2551,0.2485,0.2619,0.2645,0.2648,0.2706,0.2707,0.2708,0.273,0.273,0.2729,0.2729,0.2787,0.279,0.2793,0.282,0,0,0.2801,0.2803,0,0,0,0,0,0,0,0,0.2547,0.2555,0.264,0.2643,0.2647,0.2709,0.268,0.2745,0.273,0.2697,0.2729,0.2729,0.2761,0.2766,0.2781,0.2823,0.2825,0.2802,0.2803,0.2804,0.2805,0,0,0,0,0,0,0,0.2542,0.2552,0.2651,0.2641,0.2646,0.2655,0.2664,0.2693,0.2728,0.27,0.2702,0.2715,0.2762,0.2778,0.2782,0.2826,0.2801,0.2804,0.2806,0.2807,0.2908,0.2909,0,0,0,0,0,0,0.2536,0.2548,0.2649,0.2654,0.2597,0.2658,0.2668,0.2688,0.2729,0.2736,0.2716,0.2716,0.2773,0.2779,0.2784,0.2833,0.2804,0.2807,0.2809,0.2907,0.2909,0.291,0,0,0,0,0,0,0.2533,0.2545,0.2645,0.2604,0.2618,0.2661,0.2683,0.269,0.2708,0.2742,0.2747,0.2728,0.2773,0.278,0.282,0.2835,0.2808,0.2811,0.2906,0.2908,0.2909,0.2921,0,0,0,0,0,0,0.2529,0.2543,0.2552,0.2604,0.262,0.2685,0.2684,0.2692,0.2718,0.2719,0.2754,0.2759,0.2773,0.2816,0.2823,0.2838,0.2813,0.2905,0.2907,0.2909,0.292,0.2923,0.2926,0,0,0,0,0,0.2524,0.2542,0.2552,0.2564,0.2632,0.2686,0.2695,0.2722,0.2719,0.2734,0.2758,0.2758,0.2832,0.2819,0.2827,0.2844,0.2904,0.2906,0.2909,0.2918,0.2922,0.2926,0,0,0,0,0,0,0.249,0.2548,0.256,0.2595,0.2639,0.269,0.271,0.2724,0.2756,0.2755,0.2776,0.2784,0.2821,0.2834,0.2819,0.2879,0.2866,0.287,0.2871,0.2875,0.2878,0.2869,0.2815,0,0,0,0,0,0.2487,0.2513,0.257,0.2598,0.2622,0.2664,0.2687,0.2708,0.2744,0.2757,0.2781,0.2808,0.2837,0.2857,0.2882,0.2921,0.294,0.2936,0.2939,0.2941,0.294,0.297,0.2976,0.2917,0.2917,0.2917,0,0,0.2482,0.2516,0.2532,0.2592,0.2627,0.2667,0.2677,0.2718,0.2744,0.2759,0.2798,0.2819,0.2849,0.289,0.2907,0.2903,0.2976,0.2944,0.2946,0.2943,0.2973,0.2979,0.2984,0.2919,0.2918,0.2918,0,0,0.2489,0.2518,0.2546,0.2583,0.2638,0.2669,0.268,0.2736,0.2754,0.2797,0.2811,0.2841,0.2889,0.2914,0.2932,0.2969,0.2987,0.2979,0.2994,0.3023,0.3028,0.3032,0.3094,0.3103,0.2985,0.2985,0.2985,0,0.2478,0.2526,0.2561,0.2599,0.2632,0.2669,0.2708,0.2736,0.2792,0.2813,0.2809,0.288,0.2899,0.295,0.2962,0.2975,0.3007,0.2976,0.3027,0.3031,0.3035,0.3096,0.3107,0.2986,0.2986,0.2986,0.2985,0,0.2515,0.2548,0.257,0.2628,0.2665,0.2706,0.2754,0.2785,0.2806,0.2832,0.288,0.2909,0.2952,0.2962,0.2975,0.302,0.3041,0.3023,0.3013,0.3042,0.3105,0.3116,0.2987,0.2987,0.2986,0.2986,0,0,0.2516,0.258,0.2589,0.2617,0.2685,0.2721,0.2766,0.2825,0.2858,0.2889,0.2933,0.297,0.2982,0.3003,0.3022,0.3044,0.3107,0.3049,0.305,0.3105,0.3205,0.3344,0.3369,0.3099,0.31,0.3101,0.3248,0,0.2539,0.2592,0.2627,0.2685,0.2725,0.2769,0.2809,0.2858,0.2897,0.2946,0.2968,0.3013,0.3,0.3028,0.3047,0.3091,0.3131,0.3071,0.3174,0.3178,0.3292,0.3384,0.3295,0.343,0.3258,0.326,0.3261,0,0.2578,0.2609,0.266,0.272,0.2743,0.2774,0.2852,0.2895,0.296,0.2992,0.3032,0.3055,0.3107,0.308,0.3167,0.3133,0.3173,0.3197,0.3203,0.3332,0.3336,0.3369,0.3455,0.3376,0.3278,0.3276,0.3275,0,0.2574,0.2638,0.2673,0.2697,0.2768,0.2795,0.2833,0.2903,0.2942,0.3023,0.3067,0.3117,0.3172,0.3197,0.3285,0.3219,0.3397,0.3308,0.3474,0.3485,0.3431,0.3436,0.3444,0.3369,0.3369,0.3368,0.3368,0,0.2597,0.2628,0.2668,0.2691,0.273,0.279,0.2839,0.289,0.2966,0.3035,0.3086,0.3171,0.3203,0.3314,0.3333,0.3494,0.3449,0.3512,0.3542,0.344,0.3444,0.339,0.3333,0.3374,0.3373,0.3371,0.3371,0,0.2597,0.2621,0.2659,0.2714,0.2727,0.2755,0.2817,0.2866,0.295,0.3048,0.3079,0.3227,0.3403,0.3484,0.3588,0.3606,0.3629,0.377,0.3685,0.3704,0.374,0.3688,0.3596,0.3489,0.3928,0.3933,0.3937,0,0.2613,0.2637,0.2654,0.2673,0.2694,0.2735,0.2771,0.2838,0.29,0.3101,0.316,0.3374,0.354,0.3798,0.3885,0.4008,0.3832,0.3995,0.3841,0.378,0.3741,0.352,0.3415,0.3769,0.3771,0.3773,0.3774,0,0.2676,0.2663,0.2684,0.2696,0.2718,0.2725,0.2784,0.2814,0.2943,0.3053,0.3269,0.342,0.3733,0.3873,0.4096,0.4129,0.3819,0.4039,0.3955,0.3633,0.3404,0.3304,0.3658,0.3789,0.3788,0.3787,0.3786,0.3785,0.2736,0.2733,0.2758,0.2751,0.276,0.2753,0.2756,0.2837,0.2932,0.3113,0.3297,0.3527,0.3778,0.4085,0.4107,0.4118,0.3989,0.3993,0.3943,0.3732,0.3594,0.4046,0.4232,0.4233,0.4234,0.4235,0.4235,0,0.284,0.2828,0.2838,0.2817,0.2806,0.2792,0.281,0.282,0.292,0.3116,0.3306,0.3616,0.3793,0.3943,0.4088,0.4015,0.3717,0.3918,0.3509,0.3414,0.3813,0.3776,0.3896,0.3896,0.3896,0.3897,0.3897,0.3897,0.2922,0.2935,0.2894,0.2887,0.2861,0.2828,0.2818,0.2829,0.2925,0.3109,0.3289,0.3465,0.3744,0.3966,0.3957,0.3864,0.3521,0.3432,0.3363,0.3601,0.3598,0.3595,0.3546,0.3616,0.3616,0.2784,0.2778,0.2774]},{"header":{"parameterUnit":"m.s-1","parameterCategory":2,"la1":30.2991,"la2":30.254,"lo1":-89.0895,"lo2":-89.0444,"dy":0.0017,"dx":0.0017,"nx":28,"ny":28,"refTime":"2024-04-11T21:00:00:Z","depth":"0","parameterNumber":3,"parameterNumberName":"V-component_of_CURRENTS"},"data":[0,0,0,0,0,0,0,0,0,0,0,0,0,0,0,0,0,0,0,0,0,0,0,0,0,0,0,0,0,0,0,0,0,0,0,0,0,0,0,0,0,0,0,0,0,0,0,0,0,0,0,0,0,0,0,0,0,0,-0.1214,-0.1214,0,-0.1267,-0.1268,-0.1269,-0.1321,-0.1321,-0.1321,-0.1322,-0.1428,-0.1431,-0.1433,0,0,0,0,0,0,0,0,0,0,0,0,0,-0.1163,-0.1164,-0.1214,-0.1214,-0.1214,-0.1267,-0.1268,-0.1269,-0.1321,-0.1321,-0.1322,-0.1322,-0.1427,-0.143,-0.1433,0,0,0,0,0,0,0,0,0,0,0,0,0,-0.1201,-0.1164,-0.1214,-0.1244,-0.1247,-0.1267,-0.1268,-0.1269,-0.1321,-0.1321,-0.1322,-0.1322,-0.1426,-0.143,-0.1434,-0.1445,0,0,-0.1445,-0.1447,0,0,0,0,0,0,0,0,-0.1198,-0.1203,-0.1239,-0.1242,-0.1246,-0.1285,-0.1289,-0.133,-0.132,-0.1296,-0.1322,-0.1323,-0.1383,-0.139,-0.1403,-0.145,-0.1455,-0.1445,-0.1448,-0.1449,-0.145,0,0,0,0,0,0,0,-0.1196,-0.1201,-0.1238,-0.124,-0.1243,-0.1257,-0.1263,-0.1297,-0.1339,-0.1298,-0.1301,-0.1302,-0.1385,-0.1399,-0.1406,-0.1456,-0.1445,-0.1449,-0.1451,-0.1452,-0.1545,-0.1545,0,0,0,0,0,0,-0.1182,-0.1198,-0.1236,-0.1239,-0.1219,-0.1257,-0.1265,-0.1274,-0.1338,-0.1346,-0.1301,-0.1304,-0.1392,-0.1401,-0.141,-0.1445,-0.1449,-0.1453,-0.1455,-0.1545,-0.1545,-0.1545,0,0,0,0,0,0,-0.1181,-0.1185,-0.1234,-0.1217,-0.1224,-0.1257,-0.1268,-0.1275,-0.1286,-0.1339,-0.135,-0.1305,-0.1393,-0.1404,-0.1443,-0.1449,-0.1454,-0.1458,-0.1545,-0.1545,-0.1545,-0.1504,0,0,0,0,0,0,-0.1179,-0.1185,-0.1179,-0.1216,-0.1224,-0.1235,-0.1267,-0.1276,-0.1284,-0.1289,-0.1345,-0.1356,-0.1394,-0.1437,-0.1447,-0.1454,-0.1461,-0.1544,-0.1545,-0.1545,-0.1505,-0.1503,-0.1501,0,0,0,0,0,-0.1177,-0.1164,-0.1179,-0.1183,-0.1219,-0.1234,-0.124,-0.1267,-0.1284,-0.1282,-0.1329,-0.1354,-0.1447,-0.144,-0.1452,-0.146,-0.1544,-0.1545,-0.1545,-0.1506,-0.1503,-0.1501,0,0,0,0,0,0,-0.1119,-0.1169,-0.1186,-0.1183,-0.1203,-0.1242,-0.1237,-0.126,-0.1295,-0.13,-0.1357,-0.1371,-0.1406,-0.1437,-0.1428,-0.1488,-0.15,-0.1502,-0.1466,-0.1464,-0.1462,-0.1433,-0.1464,0,0,0,0,0,-0.1107,-0.1125,-0.116,-0.1155,-0.1164,-0.12,-0.1207,-0.1228,-0.1264,-0.1279,-0.1324,-0.1372,-0.1417,-0.1442,-0.148,-0.1512,-0.1507,-0.1525,-0.1523,-0.1521,-0.1505,-0.1524,-0.1521,-0.1547,-0.1547,-0.1547,0,0,-0.1081,-0.1109,-0.1117,-0.1145,-0.1165,-0.1171,-0.1207,-0.1212,-0.1224,-0.1285,-0.1316,-0.1362,-0.1422,-0.146,-0.1479,-0.1488,-0.1504,-0.1521,-0.1519,-0.1504,-0.1524,-0.1521,-0.1519,-0.1548,-0.1548,-0.1547,0,0,-0.104,-0.1064,-0.1068,-0.1085,-0.111,-0.1135,-0.1134,-0.1174,-0.1199,-0.1232,-0.1284,-0.1332,-0.1395,-0.1443,-0.1476,-0.1484,-0.1489,-0.1498,-0.147,-0.1489,-0.1487,-0.1484,-0.1439,-0.1433,-0.1502,-0.1502,-0.1502,0,-0.0997,-0.1015,-0.1064,-0.1067,-0.1069,-0.1117,-0.1107,-0.1141,-0.119,-0.1209,-0.1233,-0.1334,-0.1387,-0.1441,-0.1451,-0.1479,-0.1465,-0.1475,-0.1484,-0.1483,-0.1481,-0.1435,-0.1429,-0.15,-0.15,-0.15,-0.15,0,-0.0972,-0.0976,-0.0972,-0.1005,-0.1015,-0.1008,-0.1058,-0.1078,-0.1116,-0.1157,-0.1211,-0.129,-0.1344,-0.1381,-0.1422,-0.1447,-0.1429,-0.1474,-0.1485,-0.1476,-0.1428,-0.1422,-0.1497,-0.1498,-0.1498,-0.1499,0,0,-0.0885,-0.0944,-0.0938,-0.0937,-0.0977,-0.0975,-0.1002,-0.1034,-0.1037,-0.1114,-0.1124,-0.1235,-0.1274,-0.1312,-0.1376,-0.1408,-0.1387,-0.1432,-0.1434,-0.1373,-0.1371,-0.1267,-0.1251,-0.1435,-0.1435,-0.1435,-0.1327,0,-0.0837,-0.0833,-0.088,-0.0854,-0.0848,-0.0899,-0.0913,-0.0953,-0.0998,-0.1021,-0.1123,-0.1153,-0.1251,-0.1263,-0.1319,-0.137,-0.1377,-0.1408,-0.14,-0.1398,-0.1298,-0.1244,-0.1171,-0.1063,-0.1322,-0.1321,-0.1321,0,-0.0785,-0.0792,-0.0769,-0.078,-0.0779,-0.0773,-0.0784,-0.0802,-0.0867,-0.0901,-0.0969,-0.1034,-0.1103,-0.1174,-0.1258,-0.127,-0.1305,-0.1348,-0.1346,-0.1259,-0.1285,-0.1124,-0.1044,-0.1254,-0.1313,-0.1313,-0.1314,0,-0.0693,-0.07,-0.0677,-0.068,-0.0711,-0.07,-0.0709,-0.0759,-0.0746,-0.0805,-0.0778,-0.0912,-0.0907,-0.1029,-0.1126,-0.1184,-0.1179,-0.1272,-0.1203,-0.1195,-0.1134,-0.1119,-0.1245,-0.1299,-0.1299,-0.13,-0.13,0,-0.0617,-0.0586,-0.0627,-0.061,-0.0563,-0.0611,-0.0563,-0.0598,-0.0604,-0.0529,-0.0692,-0.0623,-0.0866,-0.0902,-0.1048,-0.1073,-0.1113,-0.1159,-0.1159,-0.1112,-0.1098,-0.128,-0.1422,-0.1296,-0.1296,-0.1297,-0.1298,0,-0.0505,-0.0544,-0.0508,-0.0526,-0.0519,-0.0478,-0.0443,-0.0395,-0.0423,-0.0314,-0.0307,-0.0374,-0.0392,-0.0608,-0.0744,-0.0894,-0.1062,-0.0984,-0.0874,-0.0864,-0.1015,-0.1155,-0.1211,-0.1303,-0.0894,-0.0891,-0.0888,0,-0.0446,-0.0424,-0.0423,-0.0379,-0.0374,-0.0326,-0.0273,-0.0301,-0.0212,-0.0115,-0.0012,-0.0011,0.008,-0.0101,-0.0389,-0.0589,-0.0854,-0.0678,-0.0798,-0.0974,-0.1133,-0.1242,-0.1327,-0.0689,-0.0685,-0.0682,-0.0679,0,-0.0318,-0.0327,-0.0294,-0.0214,-0.0151,-0.0078,0.0017,0.0115,0.016,0.0301,0.0537,0.0624,0.0468,0.0317,-0.0014,-0.0202,-0.0809,-0.061,-0.0852,-0.1008,-0.1077,-0.118,-0.0781,-0.0649,-0.0652,-0.0654,-0.0656,-0.0657,-0.0196,-0.0146,-0.0101,-0.0016,0.007,0.0223,0.033,0.05,0.072,0.1008,0.1026,0.1258,0.0888,0.0478,0.0151,-0.0441,-0.0513,-0.0639,-0.0792,-0.0883,-0.0988,-0.0472,-0.0316,-0.0317,-0.0318,-0.0319,-0.032,0,-0.0036,0.0013,0.0106,0.0229,0.0374,0.0359,0.0571,0.0725,0.1076,0.1391,0.165,0.1677,0.1233,0.0641,-0.0156,-0.0578,-0.0818,-0.0848,-0.1058,-0.1141,-0.0717,-0.0729,-0.0584,-0.0584,-0.0583,-0.0583,-0.0583,-0.0583,0.0065,0.0183,0.0214,0.0479,0.0582,0.0776,0.0904,0.1177,0.143,0.1909,0.2141,0.2253,0.1798,0.0327,-0.0718,-0.0977,-0.1343,-0.1341,-0.1579,-0.138,-0.1376,-0.1372,-0.1421,-0.1422,-0.1424,-0.1943,-0.1949,-0.1953]}],[{"header":{"parameterUnit":"m.s-1","parameterCategory":2,"la1":30.2991,"la2":30.254,"lo1":-89.0895,"lo2":-89.0444,"dy":0.0017,"dx":0.0017,"nx":28,"ny":28,"refTime":"2024-04-11T21:00:00:Z","depth":"2","parameterNumber":2,"parameterNumberName":"U-component_of_CURRENTS"},"data":[0,0,0,0,0,0,0,0,0,0,0,0,0,0,0,0,0,0,0,0,0,0,0,0,0,0,0,0,0,0,0,0,0,0,0,0,0,0,0,0,0,0,0,0,0,0,0,0,0,0,0,0,0,0,0,0,0,0,0.2192,0.2194,0,0.2238,0.2237,0.2237,0.2255,0.2256,0.2257,0.2257,0.2369,0.2371,0.2373,0,0,0,0,0,0,0,0,0,0,0,0,0,0.2062,0.2064,0.2192,0.2194,0.2195,0.2238,0.2237,0.2237,0.2255,0.2256,0.2257,0.2258,0.2368,0.2371,0.2373,0,0,0,0,0,0,0,0,0,0,0,0,0,0.2104,0.2065,0.2192,0.2217,0.222,0.2238,0.2237,0.2237,0.2255,0.2256,0.2257,0.2258,0.2367,0.2371,0.2374,0.2369,0,0,0.2384,0.2385,0,0,0,0,0,0,0,0,0.2102,0.2108,0.2212,0.2215,0.222,0.2251,0.2233,0.2288,0.2254,0.2231,0.2257,0.2259,0.2342,0.2347,0.2337,0.2374,0.2379,0.2384,0.2386,0.2388,0.2389,0,0,0,0,0,0,0,0.2099,0.2106,0.22,0.2214,0.2218,0.2207,0.2213,0.2242,0.2272,0.2233,0.2237,0.2258,0.2343,0.2334,0.234,0.2381,0.2384,0.2387,0.2389,0.239,0.2495,0.2496,0,0,0,0,0,0,0.2117,0.2103,0.2198,0.2202,0.2174,0.2209,0.2216,0.2231,0.227,0.228,0.2257,0.2259,0.2327,0.2336,0.2344,0.2422,0.2388,0.2391,0.2393,0.2494,0.2495,0.2496,0,0,0,0,0,0,0.2113,0.2124,0.2197,0.2162,0.2172,0.2212,0.2227,0.2232,0.2255,0.229,0.2299,0.2282,0.2329,0.234,0.2401,0.2424,0.2392,0.2395,0.2493,0.2495,0.2496,0.2526,0,0,0,0,0,0,0.2109,0.2122,0.2143,0.2163,0.2175,0.2232,0.2227,0.2232,0.227,0.2273,0.2314,0.2323,0.2331,0.2396,0.2404,0.2428,0.2398,0.2492,0.2494,0.2495,0.2524,0.2528,0.2531,0,0,0,0,0,0.2104,0.2124,0.2144,0.2156,0.2201,0.2235,0.2238,0.2263,0.227,0.2286,0.2317,0.2323,0.2411,0.24,0.2409,0.2434,0.2492,0.2493,0.2495,0.2522,0.2527,0.2531,0,0,0,0,0,0,0.2081,0.2129,0.2151,0.2187,0.2225,0.2243,0.2261,0.2279,0.2309,0.2318,0.2342,0.2353,0.2413,0.2419,0.2406,0.2467,0.2449,0.2453,0.2466,0.2471,0.2475,0.2483,0.24,0,0,0,0,0,0.2088,0.2114,0.2162,0.2194,0.2213,0.2241,0.2261,0.2281,0.2312,0.2326,0.236,0.239,0.2419,0.2445,0.2471,0.2511,0.2533,0.2529,0.2533,0.2536,0.2549,0.2589,0.2598,0.2502,0.2502,0.2502,0,0,0.2087,0.2122,0.2137,0.2192,0.2215,0.2248,0.2254,0.2292,0.2324,0.2335,0.2391,0.2413,0.2434,0.2475,0.2501,0.2491,0.2579,0.2539,0.2542,0.2552,0.2592,0.2601,0.261,0.2503,0.2503,0.2503,0,0,0.2099,0.2131,0.2159,0.2188,0.2246,0.2266,0.2288,0.2329,0.2352,0.2403,0.2418,0.2463,0.2505,0.2527,0.2539,0.2583,0.2599,0.2585,0.2614,0.2653,0.2661,0.2669,0.2727,0.2739,0.2585,0.2585,0.2585,0,0.2098,0.2141,0.2173,0.2206,0.2239,0.228,0.2316,0.234,0.24,0.2432,0.243,0.2504,0.2527,0.2579,0.2589,0.2594,0.2622,0.2594,0.2659,0.2667,0.2674,0.2731,0.2744,0.2587,0.2587,0.2587,0.2586,0,0.2127,0.2165,0.2181,0.224,0.2278,0.2311,0.2363,0.2405,0.244,0.2472,0.254,0.2562,0.2605,0.2615,0.2615,0.2677,0.2684,0.2661,0.2648,0.2686,0.2743,0.2757,0.2589,0.2589,0.2588,0.2588,0,0,0.2102,0.2185,0.2189,0.223,0.2296,0.2333,0.2389,0.2459,0.2501,0.2552,0.2605,0.2651,0.2667,0.2682,0.2691,0.2725,0.2804,0.2716,0.2717,0.2775,0.291,0.2895,0.2908,0.2788,0.2791,0.2792,0.2936,0,0.2114,0.2175,0.222,0.2288,0.2325,0.2382,0.2433,0.2502,0.2546,0.2606,0.2646,0.2698,0.2689,0.271,0.2744,0.2793,0.2838,0.2768,0.2863,0.2867,0.285,0.2922,0.2702,0.2809,0.2949,0.2951,0.2953,0,0.2127,0.2166,0.2226,0.2322,0.2345,0.2392,0.2483,0.2537,0.2621,0.2653,0.2708,0.2739,0.2818,0.2782,0.2898,0.2854,0.2889,0.2918,0.2924,0.2908,0.2876,0.279,0.2828,0.2975,0.2974,0.2972,0.297,0,0.2094,0.2179,0.2229,0.2254,0.2357,0.2404,0.2467,0.2553,0.2602,0.2688,0.2739,0.2809,0.2871,0.2915,0.2996,0.2948,0.3121,0.3056,0.3081,0.3081,0.2913,0.2894,0.3133,0.3133,0.3132,0.3132,0.3132,0,0.2082,0.2132,0.2217,0.224,0.2304,0.2393,0.2465,0.2528,0.2616,0.2688,0.2764,0.2841,0.2908,0.3013,0.3039,0.3132,0.3163,0.3116,0.3123,0.2919,0.29,0.3047,0.3035,0.3137,0.3136,0.3135,0.3134,0,0.2046,0.2103,0.2164,0.2258,0.229,0.2337,0.2454,0.25,0.2608,0.27,0.2739,0.2896,0.3044,0.3124,0.323,0.3212,0.3279,0.3299,0.3074,0.3051,0.3196,0.3184,0.3323,0.3323,0.3324,0.3325,0.3325,0,0.2053,0.2069,0.2144,0.2173,0.2219,0.2297,0.2345,0.2461,0.2508,0.274,0.2777,0.2982,0.308,0.3266,0.3292,0.3356,0.3368,0.317,0.3024,0.3227,0.3219,0.3206,0.3193,0.2822,0.2818,0.2815,0.2812,0,0.2083,0.2093,0.2155,0.2163,0.2216,0.2243,0.2325,0.2355,0.2513,0.2613,0.2791,0.2907,0.3114,0.3102,0.3209,0.3198,0.3132,0.3111,0.3396,0.2808,0.2766,0.2754,0.2756,0.2785,0.2788,0.279,0.2792,0.2793,0.2147,0.2162,0.2227,0.2223,0.2247,0.2232,0.2249,0.233,0.2423,0.2558,0.2696,0.2804,0.2888,0.295,0.2905,0.2887,0.3073,0.2916,0.292,0.2928,0.2845,0.2806,0.282,0.2822,0.2825,0.2827,0.2829,0,0.2204,0.2257,0.2284,0.2303,0.2272,0.2279,0.2275,0.2243,0.2323,0.245,0.2554,0.241,0.2468,0.2555,0.2504,0.2522,0.243,0.2405,0.2261,0.2294,0.2322,0.2199,0.2007,0.2004,0.2,0.1997,0,0,0.2283,0.2323,0.2301,0.2338,0.2333,0.2256,0.2228,0.2152,0.217,0.2161,0.2203,0.2404,0.2526,0.224,0.2222,0.2111,0.2168,0.203,0.2707,0.2575,0.2598,0.2659,0.2515,0,0,0,0,0]},{"header":{"parameterUnit":"m.s-1","parameterCategory":2,"la1":30.2991,"la2":30.254,"lo1":-89.0895,"lo2":-89.0444,"dy":0.0017,"dx":0.0017,"nx":28,"ny":28,"refTime":"2024-04-11T21:00:00:Z","depth":"2","parameterNumber":3,"parameterNumberName":"V-component_of_CURRENTS"},"data":[0,0,0,0,0,0,0,0,0,0,0,0,0,0,0,0,0,0,0,0,0,0,0,0,0,0,0,0,0,0,0,0,0,0,0,0,0,0,0,0,0,0,0,0,0,0,0,0,0,0,0,0,0,0,0,0,0,0,0.0156,0.0154,0,0.0102,0.0102,0.0102,0.0011,0.0009,0.0006,0.0004,-0.0235,-0.0239,-0.0243,0,0,0,0,0,0,0,0,0,0,0,0,0,0.0212,0.0212,0.0156,0.0154,0.0153,0.0102,0.0102,0.0102,0.0012,0.0009,0.0005,0.0003,-0.0234,-0.0239,-0.0243,0,0,0,0,0,0,0,0,0,0,0,0,0,0.0185,0.0212,0.0156,0.0095,0.0088,0.0102,0.0102,0.0102,0.0012,0.0008,0.0005,0.0001,-0.0232,-0.0238,-0.0244,-0.0204,0,0,-0.0262,-0.0265,0,0,0,0,0,0,0,0,0.0187,0.0184,0.0105,0.0099,0.0091,0.0051,0.0034,-0.0013,0.0013,0.0051,0.0004,-0.0001,-0.016,-0.0172,-0.0158,-0.0216,-0.0226,-0.0263,-0.0266,-0.0269,-0.0271,0,0,0,0,0,0,0,0.0189,0.0186,0.0144,0.0104,0.0095,0.008,0.0073,0.0026,-0.0029,0.0047,0.0038,0.0019,-0.0164,-0.0151,-0.0165,-0.0229,-0.0263,-0.0268,-0.0272,-0.0274,-0.0409,-0.0409,0,0,0,0,0,0,0.0179,0.0188,0.0145,0.0141,0.012,0.0081,0.0073,0.0076,-0.0024,-0.0045,0.0022,0.0014,-0.0139,-0.0158,-0.0174,-0.0245,-0.0269,-0.0275,-0.0278,-0.0409,-0.0409,-0.0409,0,0,0,0,0,0,0.0181,0.0177,0.0147,0.0154,0.0148,0.0083,0.0087,0.0076,0.0031,-0.0043,-0.0066,-0.0021,-0.0143,-0.0166,-0.0262,-0.0252,-0.0277,-0.0283,-0.0409,-0.0409,-0.0409,-0.0316,0,0,0,0,0,0,0.0184,0.0179,0.0168,0.0155,0.0147,0.0138,0.0089,0.0078,0.0024,0.0012,-0.0086,-0.0109,-0.0148,-0.0253,-0.0268,-0.026,-0.0287,-0.0409,-0.0409,-0.0409,-0.0319,-0.0313,-0.0308,0,0,0,0,0,0.0187,0.0203,0.0169,0.0161,0.0138,0.0137,0.0134,0.008,0.0025,0.0023,-0.0066,-0.0109,-0.0263,-0.0258,-0.0276,-0.0269,-0.0409,-0.0409,-0.0409,-0.0322,-0.0314,-0.0308,0,0,0,0,0,0,0.0213,0.0194,0.0156,0.016,0.0132,0.0117,0.0107,0.0061,-0.0001,-0.0036,-0.0117,-0.0143,-0.0217,-0.0262,-0.0254,-0.0309,-0.0339,-0.0342,-0.0267,-0.0261,-0.0255,-0.0233,-0.0292,0,0,0,0,0,0.0215,0.0222,0.019,0.0185,0.0175,0.013,0.0112,0.0075,0.0022,-0.001,-0.0097,-0.0174,-0.0213,-0.0259,-0.0309,-0.0346,-0.0381,-0.0352,-0.0346,-0.0341,-0.0336,-0.0376,-0.0372,-0.0409,-0.0409,-0.0409,0,0,0.0215,0.0207,0.0203,0.0189,0.0167,0.0172,0.0112,0.0086,0.0078,-0.0028,-0.0097,-0.0168,-0.0222,-0.0258,-0.0294,-0.0306,-0.0348,-0.0341,-0.0336,-0.0334,-0.0375,-0.0372,-0.0368,-0.0409,-0.0409,-0.0409,0,0,0.0242,0.022,0.0235,0.0232,0.0194,0.0176,0.0155,0.0104,0.0069,0.0007,-0.0063,-0.0136,-0.0226,-0.0245,-0.0263,-0.0258,-0.0318,-0.0286,-0.0238,-0.0276,-0.0273,-0.0271,-0.0301,-0.0302,-0.028,-0.028,-0.028,0,0.0235,0.0251,0.0235,0.0258,0.0246,0.0175,0.0182,0.0169,0.0078,0.0048,-0.0017,-0.014,-0.02,-0.0207,-0.0206,-0.0241,-0.0283,-0.0255,-0.0266,-0.0265,-0.0264,-0.0296,-0.0299,-0.0275,-0.0276,-0.0276,-0.0277,0,0.0284,0.0285,0.0299,0.0302,0.0299,0.0293,0.0268,0.0234,0.0154,0.0112,0.0037,-0.0044,-0.0123,-0.0136,-0.0172,-0.0186,-0.0224,-0.0253,-0.0276,-0.0255,-0.029,-0.0294,-0.0269,-0.0271,-0.0272,-0.0273,0,0,0.0288,0.0321,0.032,0.0323,0.0315,0.0318,0.0324,0.0301,0.0284,0.0187,0.0143,0.0085,-0.0006,-0.0033,-0.0093,-0.012,-0.0146,-0.0188,-0.0192,-0.0204,-0.0239,-0.0232,-0.0237,-0.0191,-0.0191,-0.0192,-0.0262,0,0.0308,0.037,0.0369,0.0389,0.0413,0.0379,0.0393,0.0368,0.0315,0.0255,0.0182,0.0107,0.0054,-0.001,-0.0039,-0.012,-0.0157,-0.0125,-0.0271,-0.0275,-0.026,-0.0241,-0.022,-0.0279,-0.0267,-0.0267,-0.0268,0,0.0339,0.0384,0.0429,0.0439,0.0439,0.0432,0.0427,0.0424,0.0378,0.0326,0.0252,0.0166,0.0111,0.0037,-0.0057,-0.0044,-0.0143,-0.0201,-0.0206,-0.0235,-0.0276,-0.0304,-0.0288,-0.0276,-0.0275,-0.0274,-0.0274,0,0.0364,0.0402,0.0434,0.0449,0.0473,0.046,0.0437,0.0424,0.0448,0.0342,0.0341,0.0223,0.0182,0.0052,-0.0059,-0.0083,-0.0169,-0.0217,-0.0298,-0.0299,-0.0326,-0.0327,-0.0309,-0.0309,-0.0309,-0.0309,-0.0308,0,0.0397,0.0407,0.044,0.0467,0.0476,0.0475,0.0468,0.044,0.0444,0.0495,0.0355,0.0386,0.0182,0.0117,-0.0038,-0.0153,-0.0153,-0.0283,-0.0314,-0.0292,-0.029,-0.0327,-0.0329,-0.0311,-0.0311,-0.031,-0.031,0,0.0406,0.0436,0.0465,0.0492,0.0488,0.0485,0.0497,0.0545,0.0522,0.059,0.0565,0.0518,0.0425,0.0245,0.005,-0.0078,-0.0233,-0.029,-0.0244,-0.0268,-0.0353,-0.0349,-0.0396,-0.0397,-0.0397,-0.0397,-0.0397,0,0.0399,0.0433,0.0476,0.052,0.0514,0.0521,0.0566,0.0554,0.0646,0.0713,0.0789,0.0705,0.0686,0.0412,0.0121,-0.0158,-0.0199,-0.0311,-0.0351,-0.0335,-0.0361,-0.0356,-0.0352,-0.0355,-0.0355,-0.0355,-0.0355,0,0.0381,0.0397,0.0434,0.055,0.0592,0.0666,0.0728,0.0821,0.088,0.0974,0.1097,0.1066,0.0802,0.0526,0.0132,-0.0055,-0.0272,-0.0316,-0.0313,-0.0325,-0.0299,-0.0323,-0.032,-0.0353,-0.0354,-0.0354,-0.0354,-0.0354,0.033,0.0362,0.0448,0.0545,0.0645,0.0811,0.0885,0.1028,0.1169,0.1326,0.1305,0.1275,0.0942,0.0439,0.0109,-0.0247,-0.0243,-0.0373,-0.0373,-0.0373,-0.0344,-0.0319,-0.0372,-0.0372,-0.0372,-0.0373,-0.0373,0,0.0313,0.0372,0.0463,0.0598,0.0757,0.0808,0.1026,0.1148,0.1347,0.1453,0.1514,0.1216,0.089,0.0515,-0.0012,-0.0324,-0.0366,-0.0414,-0.0402,-0.0401,-0.0401,-0.0374,-0.0409,-0.041,-0.0411,-0.0412,0,0,0.0312,0.0392,0.0456,0.0665,0.0796,0.1029,0.1172,0.1363,0.149,0.1563,0.1546,0.1443,0.1002,0.062,0.0186,-0.0107,-0.0181,-0.0166,-0.0105,-0.0039,-0.0035,-0.0347,-0.0299,0,0,0,0,0]}],[{"header":{"parameterUnit":"m.s-1","parameterCategory":2,"la1":30.2991,"la2":30.254,"lo1":-89.0895,"lo2":-89.0444,"dy":0.0017,"dx":0.0017,"nx":28,"ny":28,"refTime":"2024-04-11T21:00:00:Z","depth":"4","parameterNumber":2,"parameterNumberName":"U-component_of_CURRENTS"},"data":[0,0,0,0,0,0,0,0,0,0,0,0,0,0,0,0,0,0,0,0,0,0,0,0,0,0,0,0,0,0,0,0,0,0,0,0,0,0,0,0,0,0,0,0,0,0,0,0,0,0,0,0,0,0,0,0,0,0,0.1025,0.1026,0,0.1104,0.1104,0.1105,0.1155,0.1155,0.1155,0.1156,0.1244,0.1246,0.1248,0,0,0,0,0,0,0,0,0,0,0,0,0,0.0913,0.0915,0.1025,0.1026,0.1027,0.1104,0.1104,0.1105,0.1154,0.1155,0.1156,0.1156,0.1243,0.1245,0.1248,0,0,0,0,0,0,0,0,0,0,0,0,0,0.0972,0.0915,0.1025,0.1062,0.1067,0.1103,0.1105,0.1106,0.1154,0.1155,0.1156,0.1156,0.1242,0.1245,0.1248,0.1252,0,0,0.1257,0.1258,0,0,0,0,0,0,0,0,0.0969,0.0976,0.1056,0.106,0.1065,0.1122,0.1098,0.1156,0.1154,0.1119,0.1156,0.1157,0.1205,0.1211,0.1221,0.1256,0.126,0.1257,0.1259,0.126,0.1261,0,0,0,0,0,0,0,0.0964,0.0973,0.1054,0.1057,0.1062,0.1074,0.1083,0.1109,0.1156,0.1122,0.1126,0.1138,0.1207,0.1218,0.1224,0.1261,0.1257,0.126,0.1261,0.1263,0.139,0.1392,0,0,0,0,0,0,0.0958,0.0969,0.1052,0.1057,0.102,0.1076,0.1086,0.1101,0.1155,0.1165,0.1137,0.114,0.1213,0.122,0.1227,0.1316,0.126,0.1263,0.1264,0.1389,0.1391,0.1392,0,0,0,0,0,0,0.0956,0.0965,0.1049,0.1016,0.1028,0.1077,0.1094,0.1102,0.1142,0.1167,0.1177,0.1171,0.1214,0.1223,0.1273,0.1316,0.1264,0.1267,0.1387,0.1389,0.1392,0.1442,0,0,0,0,0,0,0.0952,0.0964,0.0985,0.1016,0.1029,0.1087,0.1094,0.1103,0.1147,0.1152,0.1199,0.1206,0.1215,0.1269,0.1276,0.1319,0.1269,0.1385,0.1388,0.1391,0.1438,0.1445,0.1452,0,0,0,0,0,0.0948,0.097,0.0985,0.0996,0.1053,0.1088,0.1096,0.1132,0.1148,0.1169,0.1202,0.1206,0.1294,0.1272,0.128,0.1326,0.1383,0.1387,0.1391,0.1435,0.1444,0.1452,0,0,0,0,0,0,0.0934,0.0978,0.0995,0.1031,0.1065,0.1097,0.1125,0.1147,0.1189,0.1203,0.1223,0.1233,0.1296,0.1301,0.1277,0.1372,0.1341,0.1347,0.1372,0.1381,0.1388,0.1389,0.1271,0,0,0,0,0,0.094,0.0971,0.1008,0.104,0.1059,0.1097,0.1121,0.1145,0.1181,0.1202,0.1236,0.1274,0.1313,0.1339,0.137,0.1417,0.1428,0.1453,0.1461,0.1467,0.1474,0.152,0.1531,0.1405,0.1405,0.1405,0,0,0.0942,0.0974,0.0991,0.104,0.1071,0.1102,0.1114,0.1158,0.1197,0.1204,0.1274,0.1302,0.1332,0.1389,0.1418,0.1402,0.1511,0.1471,0.1476,0.148,0.1525,0.1537,0.1548,0.1407,0.1407,0.1406,0,0,0.0952,0.0993,0.1016,0.105,0.1102,0.1125,0.1143,0.1192,0.1231,0.1288,0.1311,0.1363,0.1419,0.1452,0.1473,0.1537,0.1547,0.1556,0.1595,0.164,0.165,0.166,0.1697,0.1709,0.1559,0.1559,0.1559,0,0.0955,0.0991,0.1029,0.1062,0.1094,0.1137,0.1168,0.1212,0.1275,0.1313,0.1318,0.1424,0.1449,0.1522,0.1549,0.1555,0.1579,0.1558,0.1649,0.1658,0.1667,0.1702,0.1715,0.1562,0.1561,0.1561,0.1561,0,0.0975,0.1015,0.1035,0.109,0.1129,0.1166,0.1224,0.1277,0.1325,0.1366,0.1458,0.1496,0.1558,0.158,0.1587,0.1672,0.1669,0.1652,0.1624,0.1683,0.1716,0.1729,0.1566,0.1565,0.1564,0.1563,0,0,0.0943,0.103,0.1038,0.1072,0.115,0.1179,0.1256,0.1328,0.1387,0.1455,0.1533,0.1605,0.1636,0.1662,0.1687,0.1727,0.1814,0.1724,0.1725,0.1756,0.1919,0.1835,0.184,0.1817,0.1819,0.1821,0.192,0,0.0946,0.1006,0.1051,0.1113,0.1148,0.122,0.1283,0.1361,0.1435,0.1523,0.1588,0.167,0.1666,0.1712,0.1754,0.1802,0.1849,0.1789,0.1861,0.1864,0.1778,0.1853,0.1829,0.1929,0.1932,0.1934,0.1935,0,0.0937,0.0986,0.1045,0.1134,0.1156,0.1204,0.1318,0.1384,0.1512,0.1573,0.1665,0.1724,0.182,0.18,0.1908,0.1874,0.1908,0.1932,0.1935,0.1847,0.1803,0.1858,0.1958,0.1956,0.1954,0.1953,0.1951,0,0.0886,0.0974,0.1024,0.1057,0.1164,0.1216,0.1282,0.1404,0.1474,0.1625,0.169,0.1798,0.1879,0.1929,0.1998,0.1965,0.2106,0.2058,0.2014,0.2008,0.2029,0.2018,0.2136,0.2136,0.2136,0.2136,0.2135,0,0.0859,0.0895,0.1011,0.104,0.1107,0.1199,0.129,0.1373,0.1508,0.1603,0.1717,0.1806,0.192,0.2014,0.2038,0.2076,0.2143,0.2039,0.2034,0.2049,0.2038,0.2038,0.2026,0.2139,0.2139,0.2138,0.2137,0,0.0781,0.0859,0.0918,0.1041,0.1084,0.1135,0.1279,0.1347,0.1483,0.1616,0.1673,0.1846,0.1978,0.2071,0.2183,0.213,0.2168,0.2166,0.2201,0.2194,0.2025,0.2014,0.2105,0.2103,0.2101,0.21,0.2099,0,0.0736,0.0764,0.0898,0.0946,0.1005,0.1104,0.1173,0.1319,0.1411,0.1629,0.1691,0.1877,0.1986,0.2072,0.2163,0.222,0.2198,0.2188,0.2077,0.2039,0.2026,0.2017,0.2009,0.2096,0.2096,0.2095,0.2095,0,0.0643,0.0704,0.0758,0.0863,0.0944,0.1042,0.1171,0.1219,0.1411,0.1534,0.1692,0.1785,0.1943,0.2037,0.2119,0.214,0.2168,0.2169,0.2171,0.2067,0.2029,0.2016,0.2009,0.2089,0.209,0.209,0.209,0,0.0563,0.0577,0.0668,0.0754,0.0875,0.0984,0.1049,0.1188,0.1289,0.1537,0.1589,0.1782,0.1942,0.2,0.2063,0.2098,0.2052,0.1957,0.1969,0.1976,0.1889,0.1819,0.1829,0,0,0,0,0,0.0478,0.0491,0.0558,0.0667,0.0805,0.0873,0.1059,0.1139,0.1317,0.1396,0.1497,0.1643,0.177,0.1862,0.1875,0.1994,0.2045,0.1997,0.1937,0.2056,0.2063,0.1973,0,0,0,0,0,0,0.0413,0.0458,0.0505,0.0605,0.0663,0.0797,0.0908,0.1025,0.1102,0.1286,0.1377,0.1512,0.1668,0.1734,0.1823,0.1853,0.178,0.2114,0.211,0.2052,0.2059,0.2064,0.1973,0,0,0,0,0]},{"header":{"parameterUnit":"m.s-1","parameterCategory":2,"la1":30.2991,"la2":30.254,"lo1":-89.0895,"lo2":-89.0444,"dy":0.0017,"dx":0.0017,"nx":28,"ny":28,"refTime":"2024-04-11T21:00:00:Z","depth":"4","parameterNumber":3,"parameterNumberName":"V-component_of_CURRENTS"},"data":[0,0,0,0,0,0,0,0,0,0,0,0,0,0,0,0,0,0,0,0,0,0,0,0,0,0,0,0,0,0,0,0,0,0,0,0,0,0,0,0,0,0,0,0,0,0,0,0,0,0,0,0,0,0,0,0,0,0,0.0515,0.0515,0,0.0477,0.0477,0.0476,0.0452,0.0452,0.0452,0.0452,0.0402,0.0401,0.04,0,0,0,0,0,0,0,0,0,0,0,0,0,0.0532,0.0532,0.0515,0.0515,0.0515,0.0478,0.0477,0.0476,0.0452,0.0452,0.0452,0.0452,0.0403,0.0401,0.0399,0,0,0,0,0,0,0,0,0,0,0,0,0,0.0512,0.0532,0.0515,0.0499,0.0497,0.0478,0.0477,0.0476,0.0452,0.0452,0.0452,0.0452,0.0403,0.0401,0.0399,0.0389,0,0,0.0393,0.0393,0,0,0,0,0,0,0,0,0.0513,0.0511,0.0502,0.05,0.0498,0.047,0.0465,0.0447,0.0452,0.0468,0.0452,0.0452,0.0425,0.0421,0.0413,0.0386,0.0384,0.0393,0.0392,0.0391,0.0391,0,0,0,0,0,0,0,0.0515,0.0513,0.0499,0.0501,0.0499,0.0482,0.0479,0.0461,0.0446,0.0467,0.0465,0.0463,0.0423,0.0415,0.0411,0.0383,0.0393,0.0392,0.039,0.039,0.0363,0.0364,0,0,0,0,0,0,0.0523,0.0514,0.0501,0.0498,0.0507,0.0482,0.0478,0.0479,0.0447,0.0442,0.0463,0.0462,0.0418,0.0414,0.0409,0.0416,0.0391,0.0389,0.0388,0.0363,0.0363,0.0364,0,0,0,0,0,0,0.0524,0.0523,0.0502,0.0506,0.0502,0.0482,0.0482,0.0478,0.0478,0.0444,0.0439,0.0468,0.0418,0.0412,0.0409,0.0414,0.0389,0.0387,0.0362,0.0363,0.0364,0.0417,0,0,0,0,0,0,0.0525,0.0523,0.0531,0.0507,0.0502,0.0502,0.0482,0.0477,0.0476,0.0475,0.0446,0.0441,0.0417,0.0412,0.0407,0.041,0.0385,0.0362,0.0363,0.0363,0.0415,0.0419,0.0423,0,0,0,0,0,0.0525,0.0534,0.0532,0.0531,0.0513,0.0502,0.0499,0.0483,0.0477,0.0481,0.0466,0.0442,0.0413,0.0411,0.0405,0.0408,0.0361,0.0362,0.0363,0.0413,0.0418,0.0423,0,0,0,0,0,0,0.0542,0.0532,0.0529,0.0534,0.0526,0.0499,0.0502,0.0491,0.0482,0.0483,0.0452,0.0446,0.0442,0.0421,0.0419,0.0403,0.0382,0.0382,0.0421,0.0426,0.0431,0.044,0.0384,0,0,0,0,0,0.0552,0.056,0.0543,0.055,0.0547,0.0528,0.0524,0.0514,0.05,0.0496,0.0477,0.0457,0.0439,0.0432,0.0412,0.0408,0.037,0.0405,0.0409,0.0413,0.0417,0.0372,0.0372,0.0367,0.0367,0.0367,0,0,0.0558,0.0556,0.0559,0.0555,0.0546,0.0549,0.0525,0.0525,0.0531,0.0492,0.0498,0.0473,0.0442,0.0435,0.0431,0.042,0.0392,0.0414,0.0418,0.042,0.0373,0.0373,0.0373,0.0368,0.0368,0.0368,0,0,0.0577,0.0576,0.0589,0.0587,0.0583,0.0572,0.0577,0.056,0.0557,0.0557,0.053,0.0512,0.049,0.0465,0.045,0.0468,0.0417,0.0462,0.0492,0.0448,0.0448,0.0448,0.0389,0.0383,0.0465,0.0465,0.0465,0,0.0587,0.0603,0.0591,0.0603,0.0608,0.0587,0.0602,0.0594,0.058,0.0581,0.0568,0.0529,0.0501,0.0486,0.0492,0.0477,0.0441,0.0475,0.0454,0.0452,0.0451,0.0391,0.0384,0.0467,0.0467,0.0467,0.0466,0,0.0611,0.0629,0.0636,0.0648,0.065,0.066,0.0649,0.0654,0.0647,0.0634,0.0623,0.0583,0.0559,0.0544,0.0523,0.0503,0.0475,0.0464,0.044,0.0454,0.0391,0.0382,0.0471,0.047,0.0469,0.0469,0,0,0.0618,0.065,0.0654,0.0675,0.0679,0.0683,0.0698,0.0703,0.0716,0.0689,0.0694,0.0652,0.0626,0.0607,0.0572,0.0533,0.0484,0.0501,0.0497,0.0444,0.0376,0.0321,0.0305,0.0471,0.047,0.0469,0.0331,0,0.0644,0.0687,0.0692,0.0731,0.075,0.0746,0.0764,0.0764,0.0757,0.0755,0.0707,0.0694,0.0652,0.0641,0.0596,0.0514,0.0466,0.0522,0.037,0.0365,0.0315,0.0295,0.0467,0.0324,0.0322,0.0321,0.032,0,0.0662,0.0694,0.0743,0.0786,0.0794,0.0816,0.0844,0.0858,0.0847,0.0838,0.0808,0.0767,0.0706,0.0673,0.053,0.0569,0.0481,0.0411,0.0404,0.0329,0.0294,0.0309,0.0303,0.0304,0.0306,0.0307,0.0308,0,0.0672,0.0724,0.0773,0.0786,0.0828,0.0857,0.0881,0.0887,0.0902,0.0891,0.0882,0.0811,0.0763,0.0655,0.0504,0.0519,0.0336,0.0336,0.0199,0.0193,0.0262,0.0264,0.0237,0.0237,0.0237,0.0238,0.0238,0,0.0689,0.0725,0.079,0.0814,0.0872,0.0894,0.0947,0.0955,0.0969,0.0973,0.0927,0.0892,0.0757,0.0635,0.0511,0.0313,0.0333,0.0193,0.0153,0.0286,0.0292,0.0254,0.0258,0.0232,0.0233,0.0235,0.0235,0,0.0678,0.0725,0.0781,0.0852,0.0879,0.092,0.0988,0.1014,0.1028,0.1028,0.1023,0.0935,0.077,0.0613,0.0415,0.0307,0.0139,0.0067,0.0202,0.0174,0.0024,0.0033,-0.0097,-0.01,-0.0102,-0.0104,-0.0106,0,0.067,0.0703,0.08,0.0841,0.0878,0.0949,0.099,0.1035,0.1056,0.1039,0.1024,0.0891,0.0804,0.0479,0.0325,0.0068,0.0038,-0.0047,0.0006,0.0015,-0.001,0.0002,0.0014,-0.0111,-0.0111,-0.0112,-0.0113,0,0.0646,0.0691,0.0741,0.0831,0.0892,0.0954,0.1018,0.1034,0.1068,0.1084,0.0997,0.0851,0.0656,0.0443,0.0235,0.0062,0.0014,-0.0075,-0.007,-0.0021,-0.0003,-0.0023,-0.0009,-0.0122,-0.012,-0.012,-0.0119,0,0.0622,0.0649,0.0725,0.0801,0.0876,0.0926,0.0974,0.0992,0.1014,0.1007,0.097,0.0798,0.0715,0.0436,0.0248,0.0064,0.0028,-0.0011,-0.0009,-0.0001,0.0073,0.0112,-0.0016,0,0,0,0,0,0.0589,0.0619,0.0686,0.0768,0.0846,0.0896,0.0967,0.1011,0.1049,0.0982,0.0982,0.0805,0.0527,0.042,0.022,0.019,-0.001,-0.005,-0.0056,-0.0173,-0.0162,-0.0096,0,0,0,0,0,0,0.0562,0.0619,0.0662,0.0723,0.078,0.0855,0.0904,0.0941,0.0911,0.0931,0.0785,0.0752,0.0481,0.0632,0.0214,0.0162,0.0129,-0.0162,-0.0166,-0.0179,-0.0169,-0.016,-0.0088,0,0,0,0,0]}]]